Location: Madrid
(40.4000°N, 3.6830°W)
Time: 15:40:28

ISS - Pass Details

Date: 20 March 2018
Orbit: 403 x 406 km, 51.6° (Epoch: 17 March)

Event Time Altitude Azimuth Distance (km) Brightness Sun altitude
Exits shadow 06:31:54 14° 260° (W) 1,224 -2.1 -9.7°
Maximum altitude 06:33:18 18° 228° (SW) 1,067 -2.2 -9.4°
Drops below altitude 10° 06:35:36 10° 183° (S) 1,450 -1.1 -9.0°
Sets 06:38:05 0° 164° (SSE) 2,304 0.1 -8.5°
